Regional Weather Roundup
Issued by NWS

Home | Current Version | Previous Version | Graphics & Text | Print | Product List | Glossary Off
Versions: 1 2 3 4 5 6 7 8 9 10 11 12 13 14 15 16 17 18 19 20 21 22 23 24 25 26 27 28 29 30 31 32 33 34 35 36 37 38 39 40 41 42 43 44 45 46 47 48 49 50

000
ASUS43 KMPX 290810
RWRMN
WEATHER ROUNDUP FOR MINNESOTA
NATIONAL WEATHER SERVICE TWIN CITIES/CHANHASSEN MN
200 AM CST MON DEC 29 2014


NOTE: "FAIR" INDICATES FEW OR NO CLOUDS BELOW 12,000 FEET WITH NO
SIGNIFICANT WEATHER AND/OR OBSTRUCTIONS TO VISIBILITY. N/A MEANS
CURRENT SKY AND/OR WEATHER CONDITIONS ARE NOT AVAILABLE.

MNZ060>063-068>070-290900-
   Twin Cities Metro

CITY           SKY/WX    TMP DP  RH WIND       PRES   REMARKS
TWIN CITIES    CLOUDY     9  -2  61 N10       30.41R WCI  -5
ST PAUL        MOCLDY     8  -2  63 N7        30.43R WCI  -3
CRYSTAL        CLOUDY     8  -2  63 N6        30.41R WCI  -2
BLAINE         MOCLDY     7   1  78 NW5       30.41R WCI  -2
LAKEVILLE      CLOUDY     9   0  66 N8        30.39R WCI  -4
EDEN PRAIRIE   CLOUDY    10  -1  61 NE7       30.39R WCI  -1
SOUTH ST PAUL  MOCLDY    10  -1  60 N6        30.41R WCI   0
LAKE ELMO      FAIR       9   0  66 N6        30.41R WCI  -1
$$
MNZ001>005-007-008-013>017-022>024-027-028-290900-
   Northwest Minnesota

CITY           SKY/WX    TMP DP  RH WIND       PRES   REMARKS
BEMIDJI        PTCLDY   -11 -15  81 NW6       30.44R WCI -24
HALLOCK        PTCLDY   -13 -18  77 NW8       30.57R WCI -30
ROSEAU         MOCLDY   -13 -18  77 NW5       30.51R WCI -25
WARROAD        PTCLDY   -15 -20  76 NW5       30.49R WCI -27
THIEF RVR FALL PTCLDY   -11 -18  70 NW6       30.51R WCI -25
CROOKSTON      PTCLDY    -9 -15  77 N12       30.57R WCI -29
FOSSTON        CLEAR    -15 -18  84 CALM      30.48R
DETROIT LAKES    N/A     -6  -9  84 N10       30.46R WCI -23
MOORHEAD       CLEAR     -6  -8  92 N14       30.54R WCI -26
PARK RAPIDS    CLEAR     -6 -11  79 N7        30.41R WCI -20
MAHNOMEN       FAIR      -8 -13  79 N7        30.48R WCI -23
$$
MNZ006-009>011-018-025>026-290900-
   North Central Minnesota

CITY           SKY/WX    TMP DP  RH WIND       PRES   REMARKS
BAUDETTE       CLEAR    -13 -19  75 NW10      30.45R WCI -32
FLAG ISLAND    PTCLDY   -15 -20  76 NW14      30.46S WCI -38
INTL FALLS     CLEAR    -13 -18  78 W6        30.42R WCI -27
WASKISH        CLEAR    -11 -15  84 CALM      30.45R
BIG FORK       CLEAR     -9 -15  77 CALM      30.41R
LONGVILLE      CLEAR     -4  -8  84 NW3       30.42R
GRAND RAPIDS   CLEAR     -6 -11  77 NW8       30.38R WCI -21
CRANE LAKE     CLEAR    -11 -15  84 CALM      30.43R
ORR            CLEAR    -11 -17  77 NW7       30.35R WCI -26
COOK           CLEAR    -11 -15  84 CALM      30.38R
WALKER         FAIR      -8 -12  81 NW5       30.43R WCI -19
$$
MNZ012-019>021-037-290900-
   Northeast Minnesota

CITY           SKY/WX    TMP DP  RH WIND       PRES   REMARKS
DULUTH         CLEAR     -4 -10  75 NW7       30.35R WCI -18
ELY            CLEAR    -11 -15  84 CALM      30.34R
HIBBING        PTCLDY    -6 -13  71 NW9       30.39R HAZE    WCI -23
EVELETH        CLEAR     -6 -11  77 NW6       30.38R WCI -18
DULUTH HARBOR  CLEAR      3  -8  60 NW13      30.45R WCI -14
TWO HARBORS    CLEAR      0  -9  65 NW3       30.35R
SILVER BAY     CLEAR     -2  -9  71 CALM      30.34R
GRAND MARAIS     N/A     -1 -11  62 CALM      30.38R
G MARAIS ARPRT PTCLDY    -9 -17  70 NW9G18    30.22R WCI -27
$$
MNZ029>031-032-039>041-046>048-054>057-064-290900-
   West Central Minnesota

CITY           SKY/WX    TMP DP  RH WIND       PRES   REMARKS
FERGUS FALLS   CLEAR     -4  -9  77 N8        30.52R WCI -19
WHEATON        PTCLDY    -4  -9  77 NW12      30.51R WCI -22
MORRIS         PTCLDY     1  -2  85 N15       30.43R WCI -18
ALEXANDRIA     CLEAR      4  -2  76 N6        30.40R WCI  -7
ELBOW LAKE     FAIR      -2  -5  85 NW12      30.45R WCI -19
WADENA         CLEAR     -2  -8  78 N7        30.42R WCI -16
GLENWOOD       FAIR       3  -2  78 N7        30.40R WCI  -9
APPLETON       CLOUDY     7   1  78 N18       30.43S WCI -12
BENSON         MOCLDY     9   1  72 N10       30.42S WCI  -6
ORTONVILLE     CLOUDY     1  -4  78 N13       30.44S WCI -16
MADISON        MOCLDY     9   3  78 N12       30.43S WCI  -6
WILLMAR        MOCLDY    10   1  67 NE9       30.40S WCI  -2
$$
MNZ033>034-036-042>043-049>051-058-059-290900-
   Central Minnesota

CITY           SKY/WX    TMP DP  RH WIND       PRES   REMARKS
ST CLOUD       CLOUDY     8  -1  66 N7        30.41R WCI  -3
SAUK CENTRE    FAIR       3  -3  77 N6        30.41S WCI  -8
PAYNESVILLE    CLOUDY     5  -1  74 NW7       30.40S WCI  -7
AITKIN         CLEAR      1  -6  71 NW3       30.40R
PINE RIVER     CLEAR     -4  -8  84 NW6       30.44R WCI -16
BRAINERD       FAIR       0  -5  79 N7        30.42R WCI -13
STAPLES        CLEAR     -2  -8  78 N7        30.42R WCI -16
LONG PRAIRIE   FAIR       1  -4  78 N6        30.41S WCI -10
LITTLE FALLS   PTCLDY     3  -4  72 NW3       30.43R
LITCHFIELD     CLOUDY    10   3  72 N9        30.40S WCI  -2
BUFFALO        CLOUDY     8   1  72 N7        30.41S WCI  -3
MAPLE LAKE     CLOUDY     9   4  79 N7        30.41S WCI  -2
$$
MNZ037-044-045-052-053-290900-
   East Central Minnesota

CITY           SKY/WX    TMP DP  RH WIND       PRES   REMARKS
PRINCETON      PTCLDY     7   0  72 NW6       30.41R WCI  -3
MORA           CLEAR      3  -4  72 CALM      30.43R
CAMBRIDGE      PTCLDY     7  -2  66 N5        30.41R WCI  -2
RUSH CITY      PTCLDY     3  -3  75 N5        30.43R WCI  -6
MOOSE LAKE     CLEAR      0  -8  71 N7        30.40R WCI -13
HINCKLEY       FAIR       3  -2  78 CALM      30.42R
CLOQUET        CLEAR     -2  -9  71 NW8       30.38R WCI -17
MCGREGOR       CLEAR      0  -4  85 NW6       30.41R WCI -12
$$
MNZ071>073-080-081-089-090-097-098-290900-
   Southwest Minnesota

CITY           SKY/WX    TMP DP  RH WIND       PRES   REMARKS
MONTEVIDEO     PTCLDY    10   7  85 NE9       30.42R WCI  -2
GRANITE FALLS  CLOUDY    12   5  74 N9        30.41S WCI   0
CANBY          CLOUDY     5   1  85 N12       30.42R WCI -11
MARSHALL       MOCLDY     9   1  72 N12       30.39R WCI  -6
REDWOOD FALLS  CLOUDY    13   3  64 N7        30.39R WCI   3
OLIVIA         CLOUDY    10   5  79 N8        30.39R WCI  -1
PIPESTONE      FLURRIES   9   7  92 NE13      30.31S WCI  -7
WINDOM         CLOUDY    12   7  79 N9        30.34R WCI   0
WORTHINGTON    MOCLDY    12 -29  14 N15       30.32R WCI  -4
JACKSON        CLOUDY    18  14  86 N10       30.32R WCI   6
TRACY          CLOUDY    12   8  85 N12       30.37R WCI  -2
SLAYTON        LGT SNOW  10   7  89 N15       30.34R WCI  -7
$$
MNZ065>067-074>077-082>085-091>093-290900-
   South Central Minnesota

CITY           SKY/WX    TMP DP  RH WIND       PRES   REMARKS
MANKATO        CLOUDY    12   3  67 NE10      30.37R WCI  -1
NEW ULM        CLOUDY    12   1  62 NE8       30.38R WCI   1
ST JAMES       CLOUDY    12   9  85 N8        30.38R WCI   1
FAIRMONT       CLOUDY    16  12  86 NE9       30.33R WCI   4
GLENCOE        CLOUDY    10   3  72 N3        30.39R
FARIBAULT      CLOUDY    10   3  72 N10G16    30.37R WCI  -3
OWATONNA       CLOUDY    12   1  62 N7        30.34R WCI   2
WASECA         CLOUDY    12   3  67 NE7       30.37R WCI   2
ALBERT LEA     CLOUDY    16  12  86 N6        30.33R WCI   7
$$
MNZ078>079-086>088-094>096-290900-
   Southeast Minnesota

CITY           SKY/WX    TMP DP  RH WIND       PRES   REMARKS
ROCHESTER      CLOUDY    13   8  81 NE9       30.31R WCI   1
RED WING       CLOUDY    10   0  61 CALM      30.38S
STANTON        CLOUDY    12   3  69 N8        30.38R WCI   0
DODGE CENTER   CLOUDY    12   7  79 N10       30.32R WCI  -1
WINONA         CLOUDY    14  10  85 NW6       30.38R WCI   5
AUSTIN         CLOUDY    16  10  79 N6        30.32R WCI   7
PRESTON        CLOUDY    13  10  87 NE6       30.31R WCI   4
$$
ABBREVIATIONS USED IN REMARKS
   TC - TEMPERATURES IN CELSIUS
  WCI - WIND CHILL INDEX
   HX - HEAT INDEX
  VSB - VISIBILITY
$$


USA.gov is the U.S. government's official web portal to all federal, state and local government web resources and services.